Ocean City (26N)
Ocean City, NJ
Field Elevation: 8
Lat: 39°15.81N  Long: 74°36.45W
CTAF/Unicom Freq: 122.7000
   
     For Weather-by-Phone, call (609) 398-0705
Weather Advisories
2018-06-22   16:56 Z
Altimeter 29.98" Hg
Wind 060° @ 10 KT
Gusts 17 KT
Visibility 3 SM
Ceiling FEW012 BKN018
Temperature 20° C (68° F)
Dewpoint 18° C (64° F)
Relative Humidity 89%
Density Altitude --
Condensation Altitude --
Wind and Runways
Indicated Runway = 06
Headwind = 10 kt
Crosswind = 0 kt
History
 
 
 
More Info
All DigiWx sites map
Weather Radar
NOAA Forecast
 
Airport IQ 5010
(HMIEM) Shock Trauma Ctr
(PN44) Upper Gwynedd Heliport
 
about DigiWx
 
FAA Disclaimer: The data displayed is for advisory purposes only and is not to be used for flight planning or operations. For official data, please call (609) 398-0705 to hear the current automated AWOS voice message.
  METAR 26N 221656Z AUTO 06010G17KT VIS 3 SM FEW012 BKN018 20/18 A2998